Flag for U.S.A. Weather past 2 weeks in Anderson, South Carolina, U.S.A.

Now
89 °F

Passing clouds.


Feels Like: 93 °F
Forecast: 67 / 91 °F
Wind: 12 mph from Southwest

Location: Anderson County Airport

Current Time: Jul 7, 2015 at 6:30:58 PM

Latest Report: Jul 7, 2015 at 4:56 PM


Visibility: 10 mi

Pressure: 30.07 "Hg

Humidity: 50%

Dew point: 68 °F

Location of AndersonLocation

Historic Weather in Anderson — Graph

°F

Anderson temperature yesterday

Maximum temperature yesterday: 87 °F (at 3:56 PM)
Minimum temperature yesterday: 67 °F (at 3:56 AM)
Average temperature yesterday: 77 °F

Past Weeks' High & Low Weather Summary

 TemperatureHumidityPressure
High98 °F (Jun 26, 2:56 PM)97% (Jul 2, 9:56 PM)30.14 "Hg (Jul 2, 9:56 PM)
Low60 °F (Jun 29, 5:56 AM)31% (Jun 28, 6:56 PM)29.78 "Hg (Jun 27, 5:56 PM)
Average78 °F72%29.98 "Hg
* Reported Jun 22 4:56 PM — Jul 7 4:56 PM, Anderson, Weather by CustomWeather, © 2015

Note: Actual official high and low records may vary slightly from our data, if they occured in-between our weather recording intervals... More about our weather records

Advertising

Anderson weather history for previous 24 hours

 ConditionsComfort  
Time TempWeatherWind HumidityBarometerVisibility
4:56 PM
Tue, Jul 7
89 °FPassing clouds.12 mph50%30.07 "Hg10 mi
3:56 PM89 °FPassing clouds.14 mph52%30.08 "Hg10 mi
2:56 PM88 °FSunny.6 mph54%30.09 "Hg10 mi
1:56 PM88 °FScattered clouds.12 mph54%30.11 "Hg10 mi
12:56 PM86 °FPassing clouds.10 mph57%30.13 "Hg10 mi
11:56 AM85 °FSunny.6 mph59%30.14 "Hg10 mi
10:56 AM82 °FSunny.No wind63%30.13 "Hg10 mi
9:56 AM78 °FSunny.8 mph76%30.13 "Hg10 mi
8:56 AM74 °FSunny.No wind85%30.13 "Hg10 mi
7:56 AM70 °FSunny.No wind97%30.12 "Hg7 mi
6:56 AM68 °FFog.No wind96%30.11 "Hg0 mi
6:02 AM68 °FFog.No wind93%30.11 "Hg2 mi
4:56 AM69 °FFog.No wind93%30.07 "Hg6 mi
3:56 AM70 °FClear.No wind90%30.08 "Hg10 mi
2:56 AM69 °FClear.No wind93%30.08 "Hg10 mi
1:56 AM71 °FClear.No wind90%30.08 "Hg10 mi
12:56 AM71 °FClear.No wind90%30.08 "Hg10 mi
11:56 PM
Mon, Jul 6
72 °FClear.No wind87%30.07 "Hg10 mi
10:56 PM73 °FClear.No wind84%30.07 "Hg10 mi
9:56 PM76 °FClear.No wind77%30.06 "Hg10 mi
8:56 PM77 °FSunny.5 mph77%30.05 "Hg10 mi
7:56 PM81 °FSunny.8 mph72%30.05 "Hg10 mi
6:56 PM83 °FSunny.6 mph65%30.06 "Hg10 mi
Weather by CustomWeather, © 2015

See weather overviewHow to use our weather pages